TDRS 7

Last updated on Tue Jan 14 2025 00:02:33 GMT+0000 (Coordinated Universal Time)

1 23613U 95035B 25013.43591000 -.00000205 00000+0 00000+0 0 9996 2 23613 13.5931 351.7655 0022161 67.9575 295.2671 1.00270998108043
UTC large
Height (km)
Speed (km/s)
/
Latitude / Longitude
Inclination (degrees)
Orbital Period (minutes)
Azimuth
Elevation
Range (km)
Doppler Factor

Next 0 passes for location: London (51.5072 / 0.1276)

Sorry there are no passes over London.